FW8347 Weather Reports


time (UTC)temp
C
wind
direction
speed
KPH
gust
KPH
rain 1hr
cm
rain 24hr
cm
rain mn
cm
humidity
%
barometer
mb
20260506211544 7 329 3.2 6.4 0.00 1.96 1.55 83 1010.1
20260506210048 7 0 0.0 3.2 0.00 1.96 1.55 85 1009.9
20260506204543 6 0 0.0 3.2 0.00 1.96 1.55 85 1010.0
20260506203042 7 329 0.0 4.8 0.00 1.96 1.55 86 1010.0
20260506201545 7 329 3.2 6.4 0.00 1.96 1.55 87 1010.1
20260506200044 6 329 1.6 6.4 0.00 1.96 1.55 87 1010.1
20260506194543 6 329 3.2 6.4 0.00 1.96 1.55 88 1010.0
20260506193048 6 329 0.0 6.4 0.00 1.96 1.55 89 1010.0
20260506191550 6 329 4.8 8.0 0.00 1.96 1.55 90 1010.1
20260506190049 6 329 4.8 8.0 0.00 1.96 1.55 91 1010.1
20260506184548 6 329 3.2 9.7 0.00 1.96 1.55 92 1010.1
20260506183048 6 333 6.4 14.5 0.00 1.96 1.55 93 1010.0
20260506181545 5 327 9.7 16.1 0.00 1.96 1.55 94 1010.2
20260506180043 5 339 12.9 17.7 0.00 1.96 1.55 94 1010.2
20260506174545 5 337 9.7 16.1 0.00 1.96 1.55 94 1010.0
20260506173122 5 346 8.0 12.9 0.00 1.96 1.55 95 1009.7
20260506171545 5 15 6.4 12.9 0.00 1.96 1.55 95 1009.5
20260506170046 5 34 6.4 14.5 0.00 1.96 1.55 95 1009.4
20260506164548 5 355 11.3 17.7 0.00 1.96 1.55 95 1009.6
20260506163044 5 5 11.3 16.1 0.00 1.96 1.55 95 1009.4
20260506161558 5 19 11.3 16.1 0.03 1.96 1.55 95 1009.5
20260506160047 5 32 11.3 16.1 0.03 1.96 1.55 95 1009.4
20260506154550 5 30 12.9 16.1 0.03 1.96 1.55 96 1009.4
20260506153051 5 36 11.3 17.7 0.03 1.96 1.55 95 1009.3
20260506151548 5 30 14.5 19.3 0.00 1.93 1.52 95 1009.4
20260506150045 5 28 14.5 17.7 0.00 1.93 1.52 95 1009.2
20260506144545 5 42 14.5 20.9 0.03 1.93 1.52 95 1009.0
20260506143045 5 57 12.9 17.7 0.03 1.93 1.52 95 1008.9
20260506141546 5 44 11.3 17.7 0.05 1.93 1.52 95 1008.9
20260506140045 5 57 9.7 16.1 0.05 1.93 1.52 95 1009.0
20260506134549 5 43 8.0 14.5 0.03 1.91 1.47 95 1008.9
20260506133041 6 77 8.0 16.1 0.05 1.91 1.47 95 1008.8
20260506131552 6 82 9.7 17.7 0.03 1.88 1.47 95 1008.8
20260506130100 6 76 6.4 12.9 0.05 1.88 1.47 95 1008.8
20260506124553 6 72 6.4 16.1 0.08 1.88 1.47 95 1008.8
20260506123047 6 80 8.0 14.5 0.05 1.85 1.45 95 1008.7
20260506121541 6 92 9.7 17.7 0.08 1.85 1.45 95 1008.7
20260506120042 6 88 8.0 19.3 0.05 1.83 1.42 95 1009.0
20260506114546 6 103 8.0 17.7 0.08 1.80 1.40 95 1008.6
20260506113052 6 84 11.3 19.3 0.13 1.80 1.40 95 1008.5
20260506111542 5 81 9.7 19.3 0.18 1.78 1.37 95 1008.7
20260506110052 6 103 11.3 19.3 0.23 1.78 1.37 95 1008.5
20260506104552 6 86 8.0 16.1 0.23 1.73 1.32 95 1008.8
20260506103053 6 72 11.3 19.3 0.15 1.65 1.24 95 1008.9
20260506101555 6 78 9.7 16.1 0.13 1.60 1.19 95 1009.1
20260506100101 6 86 8.0 17.7 0.10 1.55 1.14 95 1009.1
20260506094539 6 95 9.7 17.7 0.08 1.47 1.09 95 1008.9
20260506093044 6 95 9.7 19.3 0.13 1.47 1.09 95 1008.5
20260506091546 6 90 11.3 17.7 0.13 1.47 1.07 95 1008.3
20260506090046 6 95 6.4 16.1 0.15 1.45 1.04 95 1008.8
20260506084604 6 82 12.9 20.9 0.18 1.42 1.02 95 1008.7
20260506083041 6 86 6.4 16.1 0.23 1.37 0.97 95 1009.2
20260506081552 6 78 6.4 16.1 0.25 1.32 0.94 95 1009.2
20260506073047 6 90 11.3 19.3 0.25 1.14 0.74 95 1008.9
20260506071539 6 85 9.7 19.3 0.28 1.09 0.69 95 1008.7
20260506061542 6 62 12.9 17.7 0.20 0.81 0.41 95 1009.6
20260506044637 7 96 4.8 9.7 0.13 0.51 0.10 94 1009.8
20260506043047 7 92 9.7 16.1 0.10 0.48 0.08 94 1009.4
20260506041558 7 91 4.8 9.7 0.08 0.46 0.05 94 1009.8
20260506040047 7 52 4.8 9.7 0.03 0.41 0.00 94 1009.8
20260506034619 7 0 0.0 0.0 0.00 0.38 0.38 93 1010.2
20260506033043 7 0 1.6 4.8 0.03 0.38 0.38 94 1009.7
20260506031544 7 0 1.6 6.4 0.05 0.38 0.38 93 1009.8
20260506030044 7 223 1.6 4.8 0.08 0.38 0.38 93 1010.0
20260506024548 7 223 3.2 8.0 0.10 0.38 0.38 93 1010.1
20260506023101 7 223 4.8 8.0 0.08 0.36 0.36 93 1010.3
20260506021543 7 223 0.0 4.8 0.08 0.33 0.33 92 1010.4
20260506020047 7 0 0.0 0.0 0.05 0.30 0.30 92 1010.4
20260506014544 7 0 0.0 0.0 0.08 0.28 0.28 92 1010.4
20260506013046 7 0 0.0 0.0 0.10 0.28 0.28 92 1010.2
20260506011603 7 0 0.0 3.2 0.08 0.25 0.25 91 1009.9
20260506010056 7 0 0.0 6.4 0.10 0.25 0.25 91 1009.7
20260506004602 7 223 3.2 6.4 0.05 0.20 0.20 91 1009.5
20260506003056 7 223 3.2 6.4 0.05 0.18 0.18 91 1009.3
20260506001552 7 240 4.8 12.9 0.10 0.18 0.18 90 1009.1
20260506000047 7 280 11.3 16.1 0.10 0.15 0.15 90 1009.0
20260505234614 7 292 11.3 19.3 0.15 0.15 0.15 90 1009.1
20260505233045 7 298 16.1 20.9 0.13 0.13 0.13 90 1009.3
20260505231548 7 287 14.5 20.9 0.08 0.08 0.08 89 1008.9
20260505230046 7 287 17.7 25.7 0.05 0.05 0.05 88 1008.9
20260505224546 7 306 22.5 30.6 0.00 0.00 0.00 86 1008.6
20260505223039 8 281 19.3 29.0 0.00 0.00 0.00 86 1008.5
20260505221544 8 281 19.3 30.6 0.00 0.00 0.00 84 1007.8
20260505220059 10 288 20.9 27.4 0.00 0.00 0.00 83 1007.5
20260505214543 10 281 19.3 25.7 0.00 0.00 0.00 84 1006.8
20260505213041 10 292 20.9 30.6 0.00 0.00 0.00 82 1006.3